Location: Unspecified
(50.7693°N, 0.0000°E)
Time: 21:06:30
(UTC+00:00)

Vanguard 1 - Pass Details

Date: 21 June 2019
Orbit: 653 x 3830 km, 34.2° (Epoch: 22 October)

Event Time Altitude Azimuth Distance (km) Brightness Sun altitude
Exits shadow 00:53:18 13° 172° (S) 5,811 13.4 -14.9°
Maximum altitude 00:59:47 17° 150° (SSE) 5,025 13.2 -14.7°
Drops below altitude 10° 01:07:27 10° 117° (ESE) 4,814 13.5 -14.4°
Sets 01:12:24 0° 98° (E) 5,250 13.9 -14.2°
